STARLINK-1292, 45394

Orbit data source: Space-Track

STARLINK-1292, 45394 is a payload satellite owned by SpaceX/Seattle (US) in LEO that was launched on Wed, 18 Mar 2020 UTC via an FALCON 9 launch vehicle from the Air Force Eastern Test Range (AFETR). Payload-class satellites include a variety of spacecraft equipped with specific instruments for various scientific and technological missions. These include communications satellites like Starlink; space stations such as the ISS; scientific satellites like the Hubble; Earth observation satellites from companies like Planet Labs, Umbra, and HawkEye 360; GPS; miniature CubeSats for education and research; and military/defense satellites.

Loading next visibility...
Identifier
45394, 2020-019AL
Orbit
LEO
Country
Flag of USUS
Related business
Manufacturer
SpaceX/Seattle
Mission
Partially operational Commercial Communications
Bus & Motor
STARLINK, Unknown motor
Mass
260 kg wet, ~248 kg dry
Launch date (UTC)
2020-03-18 (5 years ago)
Launch vehicle
FALCON 9
Launch site
Air Force Eastern Test Range (AFETR)
Object type
Payload
Rocket body
Debris
Shape & HBR
Box + 1 Pan, 4.4 m
Radar Cross Section
13.562 m², Large (>1 m²)

Expand to show TLE details & history
Last TLE update: 13 hours ago

TLE from 13 hours ago
0 STARLINK-1292
1 45394U 20019AL  25258.25003472  .00050897  00000-0  40489-3 0  9999
2 45394  53.0496 189.1978 0004881 116.4984 210.3878 15.70715209  6003
Epoch: 2025-09-15T06:00Z
TLE epoch observation values (Epoch: 2025-09-15T06:00:02.999Z)
Latitude
-26.10954°
Longitude
83.22267°
Altitude
367.356 km
Speed
7.687 km/s
True Right ascension
11h 10m 46s
True Declination
-25° 57' 58"
Sunlit
Object was in daylight at epoch
Visualization orbit readout
Latitude
Unknown
Longitude
Unknown
Altitude
Unknown
Speed
Unknown
Apparent Right ascension
Unknown
Apparent Declination
Unknown
Sunlit
N/A
Visualization observer readout
Local Sidereal Time
11:39:47
Azimuth
Unknown
Elevation
Unknown
Doppler factor
Unknown
Orbital elements
Apogee altitude
360.418 km
Perigee altitude
353.843 km
Semi-major axis
6,735.268 km
Eccentricity
0.00049
Inclination
53.0496°
RAAN
189.1978°
Arg. of periapsis
116.4984°
True anomaly
210.35952°
Mean anomaly
210.3878°
Eccentric anomaly
210.37366°
Mean motion
3.92655 °/min
Orbital period
91.68 mins
BSTAR
0.00040489
Loading maneuver chart data...
Computing Atmospheric mass density...
Loading historical data...
Loading historical data...
Loading historical data...
Loading historical data...
Loading historical data...
Loading historical data...
Loading historical data...

Documentation

Showing up to 5 results
|